Location: Capannuccia
(43.7000°N, 11.3000°E)
Time: 12:28:37
(UTC+00:00)

BREEZE-M DEB (TANK) - Pass Details

Date: 07 June 2020
Orbit: 323 x 12055 km, 49.6° (Epoch: 01 July)

Event Time Altitude Azimuth Distance (km) Brightness Sun altitude
Rises 01:24:19 0° 293° (WNW) 2,339 5.3 -17.1°
Reaches altitude 10° 01:26:33 10° 309° (NW) 1,272 4.1 -16.9°
Maximum altitude 01:28:37 25° 11° (N) 710 3.5 -16.7°
Drops below altitude 10° 01:30:56 10° 73° (ENE) 1,449 5.0 -16.4°
Sets 01:33:44 0° 87° (E) 2,799 6.3 -16.2°
